Preview of NWS' New Version of Forecast
This preview is not operational and should not be used for support decisions.

Regional Weather Roundup (RWR)

Issued by National Weather Service (NWS)

                            
000
ASUS43 KBIS 180002
RWRND 

NORTH DAKOTA REGIONAL WEATHER ROUNDUP
NATIONAL WEATHER SERVICE BISMARCK ND
700 PM CDT WED JUL 17 2019

NOTE: "FAIR" INDICATES FEW OR NO CLOUDS BELOW 12,000 FEET WITH NO
SIGNIFICANT WEATHER AND/OR OBSTRUCTIONS TO VISIBILITY.


NDZ001>003-009>011-017-180100-
NORTHWEST NORTH DAKOTA
  
CITY           SKY/WX    TMP DP  RH WIND       PRES   REMARKS
WILLISTON      PTSUNNY   76  59  55 SW14G20   29.72F                  
6HR MIN TEMP:  76; 6HR MAX TEMP:  85;                                

MINOT          TSTM      72  59  63 VRB6G43   29.70F                  
MINOT AFB      RAIN      70  63  78 SW10      29.69S                  
$$
 
NDZ018>021-031>035-040>046-180100-
SOUTHWEST NORTH DAKOTA
  
CITY           SKY/WX    TMP DP  RH WIND       PRES   REMARKS
BISMARCK       PTSUNNY   84  58  40 S7        29.73F                  
6HR MIN TEMP:  78; 6HR MAX TEMP:  86;                                

DICKINSON      PTSUNNY   76  60  57 SE9       29.72F                  
GARRISON         N/A     76  63  64 E3        29.72F                  
6HR MIN TEMP:  73; 6HR MAX TEMP:  81;                                

HETTINGER ARPT MOSUNNY   81  57  43 SW9       29.77F                  
$$
 
NDZ004>008-012>016-024-026-027-054-180100-
NORTHEAST NORTH DAKOTA
  
CITY           SKY/WX    TMP DP  RH WIND       PRES   REMARKS
GRAND FORKS    MOSUNNY   82  66  58 W10G21    29.65F                  
GRND FRKS AFB  MOSUNNY   82  67  61 W9        29.67S                  
DEVILS LAKE    SUNNY     80  62  54 W10       29.71S                  
$$
 
NDZ022-023-025-028>030-036>039-047>053-180100-
SOUTHEAST NORTH DAKOTA
  
CITY           SKY/WX    TMP DP  RH WIND       PRES   REMARKS
FARGO          SUNNY     84  68  58 W12       29.68F                  
6HR MIN TEMP:  82; 6HR MAX TEMP:  85;                                

JAMESTOWN      SUNNY     79  65  62 NW8       29.73S                  
$$